THORAD DELTA 1 DEB, 8162

Orbit data source: Space-Track

THORAD DELTA 1 DEB, 8162 is space debris in SSO originally from a launch on Fri, 15 Nov 1974 UTC launched from the Air Force Western Test Range (AFWTR). Debris objects in space refer to the collection of defunct objects orbiting the Earth. Examples of debris include non-operational satellites, rocket bodies, and fragments generated from explosions, collisions, or faulty payload assembly.

Loading next visibility...
Identifier
8162, 1974-089AC
Orbit
SSO
Last TLE update
14 hours ago
Origin
Manufacturer
Unknown
Mission
Spacecraft
Bus & Motor
Unknown
Mass
Unknown
Launch date (UTC)
1974-11-15 (50 years ago)
Launch vehicle
Unknown
Launch site
Air Force Western Test Range (AFWTR)
Object type
Payload
Rocket body
Debris
Shape & HBR
Unknown
Radar Cross Section
Small (<0.1 m²)

Expand to show TLE details & history

TLE from 14 hours ago
0 THORAD DELTA 1 DEB
1 08162U 74089AC  25128.67225082  .00000940  00000-0  62145-2 0  9998
2 08162 100.7782  29.6598 0149343 289.9963 126.5998 12.49620508269287
Epoch: 2025-05-08T16:08Z
Definitive object data (Epoch: 2025-05-08T16:08:02.47Z)
Latitude
56.46638°
Longitude
-95.69956°
Altitude
1,546.321 km
Speed
7.066 km/s
True Right ascension
00h 52m 12s
True Declination
56° 19' 25"
Sunlit
Object was in daylight at TLE epoch
Visualization TLE readout
Latitude
49.3316°
Longitude
114.16893°
Altitude
1,583.063 km
Speed
7.032 km/s
Apparent Right ascension
19h 21m 54s
Apparent Declination
62° 21' 28"
Sunlit
Object is in daylight
Visualization observer readout
Local Sidereal Time
14:07:21
Azimuth
36.23° NE
Elevation
39.683°
Doppler factor
1
Orbital elements
Apogee altitude
1,580.685 km
Perigee altitude
1,346.464 km
Semi-major axis
7,841.711 km
Eccentricity
0.0149343
Inclination
100.7782°
RAAN
29.6598°
Arg. of periapsis
289.9963°
True anomaly
127.95844°
Mean anomaly
126.5998°
Eccentric anomaly
127.28064°
Mean motion
3.12555 °/min
BSTAR
0.0062145
Orbital period
115.18 mins
Loading maneuver chart data...
Loading SW <> Apogee altitude chart data...
Loading historical data...
Loading historical data...
Loading historical data...
Loading historical data...
Loading historical data...
Loading historical data...
Loading historical data...

THORAD DELTA 1 DEB Visibility forecast

Observer location: undefined°, undefined°

Span
Click to sort rows by Start time (UTC) header in descending order
Start Az.
Max El. time (UTC)
Max El. Az.
Max El.
End time (UTC)
End Az.
12 mins2025-05-09 05:58:36.119Z36.442° NE2025-05-09 06:02:36.119Z116.698° SE42.271°2025-05-09 06:10:36.119Z184.475° SSW
13 mins2025-05-09 07:48:36.119Z353.813° N2025-05-09 07:54:36.119Z304.265° NW27.502°2025-05-09 08:01:36.119Z247.263° WSW
9 mins2025-05-09 15:05:36.119Z81.41° E2025-05-09 15:09:36.119Z50.688° ENE17.414°2025-05-09 15:14:36.119Z14.045° NNE
15 mins2025-05-09 16:54:36.119Z152.986° SSE2025-05-09 17:01:36.119Z60.408° ENE44.216°2025-05-09 17:09:36.119Z347.178° N
11 mins2025-05-09 18:50:36.119Z228.104° WSW2025-05-09 18:55:36.119Z269.914° W21°2025-05-09 19:01:36.119Z315.67° NNW
13 mins2025-05-10 04:59:36.119Z39.8° NE2025-05-10 05:06:36.119Z99.007° ESE27.018°2025-05-10 05:12:36.119Z148.649° SSE
|